Location: Kalberh�ni
(46.4610°N, 7.2453°E)
Time: 15:05:49
(UTC+00:00)

Lacrosse 4 Rocket - Pass Details

Date: 21 October 2021
Orbit: 537 x 619 km, 68.0° (Epoch: 04 December)

Event Time Altitude Azimuth Distance (km) Brightness Sun altitude
Rises 17:14:07 0° 337° (NNW) 2,795 5.1 -7.7°
Reaches altitude 10° 17:16:49 10° 355° (N) 1,909 4.1 -8.1°
Maximum altitude 17:20:02 20° 44° (NE) 1,380 2.9 -8.7°
Enters shadow 17:22:49 12° 88° (E) 1,808 3.3 -9.2°
